Погода в Беверли Хиллсе

США     34°04′39″N   118°24′14″W
темп.,
°C
ветер,
м/с
пор.,
м/с
влажн.,
%
обл.,
%
осадки,
мм/ч
давл.,
гПа
погр.,
м
16 октября, сб
сб1623:00+22ссв33210 0.0 101622
02:00+20с44200 0.0 101641
05:00+19с44210 0.0 101550
08:00+20ссв34220 0.0 101668
11:00+25св22170 0.0 1015307
14:00+26ююз32210 0.0 1014669
17:00+23зюз33300 0.0 1013190
20:00+22з34270 0.0 101463
17 октября, вс
вс1723:00+20юз123828 0.0 101441
02:00+18вюв125484 0.0 101465
05:00+17вюв11583 0.0 101443
08:00+17юз115641 0.0 101556
11:00+20ююз22390 0.0 1015437
14:00+20юз44440 0.0 1014446
17:00+19юз45520 0.0 1014353
20:00+16зюз33650 0.0 1014208
18 октября, пн
пн1823:00+16зюз23730 0.0 1015233
02:00+15з22740 0.0 1015263
05:00+14з22781 0.0 1014245
08:00+15з22806 0.0 1015326
11:00+17ююз446939 0.1 1015898
14:00+16юз546927 0.1 1014550
17:00+16юз33581 0.1 1013594
20:00+15ю11630 0.0 1014431
19 октября, вт
вт1923:00+15юв22660 0.0 1015525
02:00+15вюв34660 0.0 1015573
05:00+14вюв23710 0.0 1015483
08:00+14вюв22700 0.0 1016403
11:00+17вюв22520 0.0 1017676
14:00+18ююз425335 0.0 1015679
17:00+16юз336679 0.0 1015302
20:00+15з2367100 0.0 1016205
20 октября, ср
ср2023:00+16ююз116698 0.0 1017162
02:00+15вюв016952 0.0 1017103
05:00+15юз11695 0.0 101752
08:00+15сз11645 0.0 101878
11:00+19ююз215377 0.0 1019381
14:00+19юз435488 0.0 1018445
17:00+18юз3457100 0.0 1017229
20:00+18зюз115795 0.0 101887